Temperature
20 18 17 16 15 15 15 15 15 15 15 15 15 14 14 13 13 13 13 13 13 13 13 13 13 13 13 13 13 13 13 13 13 14 14 14 15 14 14 13 13 12 13
20 18 17 16 15 15 15 15 15 15 15 14 14 14 13 13 13 12 12 12 12 12 13 13 13 13 13 13 13 12 12 13 13 14 14 14 14 14 13 13 13 12 13
20 18 17 16 15 15 15 15 15 15 15 15 14 13 13 13 12 12 12 12 13 13 12 12 13 13 13 12 12 12 12 12 13 14 14 12 12 13 13 12 12 12 12
19 18 17 16 15 15 15 15 15 15 15 15 14 13 13 13 12 12 12 13 13 13 13 13 12 12 12 12 12 12 12 13 13 13 12 12 12 13 13 12 12 12 11
19 18 17 16 15 15 15 15 15 15 15 14 14 13 13 13 12 12 12 13 13 13 13 13 13 12 12 12 12 12 12 13 13 12 12 12 12 13 13 13 12 11 11
19 17 17 16 15 15 15 15 15 15 15 15 14 13 13 13 12 12 12 12 13 13 13 13 12 12 12 12 12 12 12 13 12 11 12 12 12 13 14 13 13 12 12
18 17 17 16 15 15 15 15 15 15 15 15 14 13 13 12 12 12 12 12 13 13 13 13 12 12 12 13 13 13 13 13 13 12 12 12 13 14 14 14 13 13 13
18 18 17 16 15 14 14 15 15 15 15 15 14 13 13 12 12 13 13 12 13 13 13 13 13 13 13 13 13 13 13 13 13 12 12 12 13 13 13 13 13 13 13
18 17 16 16 15 14 14 14 14 15 15 15 14 14 13 13 12 13 13 13 13 13 13 13 13 13 13 13 13 13 13 13 12 12 12 12 12 12 12 12 12 12 12
18 17 16 15 15 14 14 14 14 14 14 14 14 14 13 13 13 13 12 13 13 13 13 13 13 13 13 13 13 13 13 12 12 12 12 12 12 12 12 12 12 12 12
18 18 17 16 15 15 14 14 14 14 14 14 14 14 14 12 12 12 12 13 13 13 13 13 13 12 12 12 12 12 12 12 12 12 12 12 12 12 12 12 12 12 12
18 18 18 17 16 15 14 14 14 13 14 13 13 14 13 12 12 12 13 13 13 13 12 12 12 12 12 12 12 12 12 12 11 11 11 12 12 12 12 12 12 12 12
18 18 18 17 17 16 15 14 14 14 14 13 13 13 13 13 13 13 12 12 12 12 12 12 12 12 12 12 12 12 12 12 12 11 11 12 12 11 11 11 11 11 11
18 18 18 18 17 17 16 15 14 14 14 14 14 13 13 13 13 12 12 12 12 12 12 11 12 12 12 12 12 12 12 12 12 11 11 11 11 11 10 10 10 10 10
18 18 18 18 18 18 17 16 15 14 14 14 14 13 13 13 12 12 12 12 11 11 11 11 11 12 12 12 12 12 11 11 11 11 10 11 10 10 9 9 9 9 9
18 18 19 19 18 18 18 17 16 15 14 14 13 13 13 12 12 12 12 12 12 11 11 11 12 12 12 11 11 11 11 11 10 10 9 9 9 9 8 8 8 8 8
18 18 18 19 19 18 18 17 16 15 14 14 13 13 13 13 12 12 12 12 11 11 11 11 12 11 11 11 11 10 10 10 9 9 9 8 8 8 8 8 8 8 8
18 18 18 19 19 19 18 17 16 15 14 14 13 13 13 13 12 12 12 12 11 11 11 11 11 11 11 11 10 10 10 10 9 8 7 7 7 7 7 7 7 7 7
18 18 18 19 19 19 18 17 16 15 14 14 13 13 13 13 13 12 12 12 12 11 11 11 11 11 11 10 10 10 10 9 8 7 6 6 7 7 7 7 7 7 7
17 18 18 19 19 18 18 17 15 14 14 14 13 13 13 13 13 12 12 12 11 11 11 11 11 11 10 10 9 9 9 8 7 6 6 6 6 6 6 6 6 6 6
17 17 18 18 18 18 18 17 16 15 14 13 13 13 13 13 12 12 12 11 11 11 11 11 11 10 10 9 9 8 7 8 7 6 6 6 5 6 6 6 5 6 6
16 17 18 18 18 18 18 17 15 15 14 14 13 13 13 12 12 12 11 11 11 11 11 10 10 9 9 8 7 6 6 6 5 6 6 6 5 5 5 5 5 5 5
16 16 17 18 18 17 17 16 16 15 14 13 13 13 12 12 11 11 11 11 11 10 10 10 9 8 8 7 6 5 5 6 4 4 5 5 4 4 4 5 5 5 4
16 16 17 17 17 17 16 16 16 14 13 13 12 12 12 11 11 10 10 10 10 10 10 9 8 8 7 6 5 5 4 3 2 3 3 2 2 2 2 3 3 4 3
15 16 16 17 16 16 16 15 14 13 12 12 12 12 11 10 10 10 10 10 10 9 9 8 7 7 6 5 4 4 3 2 1 0 1 1 1 0 -0 -0 1 1 1
14 15 16 16 16 16 15 14 13 13 13 12 12 11 11 10 10 10 10 9 9 9 8 7 6 6 5 4 4 3 2 1 0 -0 -0 -0 -0 -1 -1 -1 -1 -1 -2
Wind_Speed
10 16 17 18 17 16 15 14 12 11 10 10 12 13 13 12 10 8 7 6 6 6 5 6 6 6 8 10 10 10 9 7 7 7 6 5 4 4 3 1 2 3 2
14 17 19 19 18 16 15 14 12 10 9 10 12 13 12 11 9 8 7 6 6 7 8 9 10 10 10 10 9 8 7 5 5 6 3 1 2 4 4 2 4 3 2
15 17 19 19 18 17 15 14 12 10 9 10 11 12 12 10 9 9 7 7 6 7 8 10 11 11 10 9 7 6 5 5 5 4 3 3 2 3 5 4 4 5 5
15 17 18 19 18 17 15 13 12 10 10 10 12 12 11 10 9 8 7 7 7 7 8 8 9 9 8 7 6 5 5 5 4 3 4 4 4 4 7 7 6 6 7
15 16 18 20 18 17 15 13 12 10 10 11 12 12 10 9 8 7 7 7 7 7 7 7 7 7 6 5 5 4 3 3 2 5 4 4 4 5 8 9 9 8 8
15 16 18 19 18 17 15 13 12 10 10 11 11 11 9 7 6 6 7 7 7 7 6 6 5 4 4 3 3 3 4 3 6 4 5 5 5 5 8 8 9 10 10
15 15 18 19 18 17 15 14 12 11 10 10 10 9 7 5 3 4 6 7 6 5 4 4 4 4 3 3 3 4 4 4 6 5 5 4 5 6 8 8 9 10 12
14 14 17 19 19 18 16 15 13 12 11 10 9 8 6 3 1 1 7 8 6 4 2 3 4 4 3 3 4 4 5 6 5 4 5 5 5 7 8 9 10 11 13
13 13 14 17 17 18 17 16 14 13 11 10 9 7 4 3 3 2 8 8 5 2 1 2 3 4 4 4 4 4 4 4 6 4 5 5 6 8 9 9 10 10 11
11 13 13 14 15 15 16 16 15 13 12 10 8 7 6 5 4 5 7 6 3 1 2 3 4 5 5 5 5 4 2 4 4 4 4 5 7 8 8 9 10 10 10
10 12 13 13 13 13 13 15 15 14 12 11 10 9 7 6 5 5 6 5 3 3 4 4 5 5 3 6 6 3 1 3 3 4 4 6 7 7 7 8 8 9 9
13 14 13 13 13 13 12 12 12 12 11 11 9 10 8 6 4 4 6 5 4 4 4 5 4 3 1 3 4 1 3 3 4 4 5 6 5 5 6 8 10 11 12
12 13 13 13 13 13 10 11 10 9 9 9 9 9 7 6 6 5 5 5 4 4 3 4 2 3 4 4 4 4 4 4 4 3 6 7 6 7 9 11 12 12 12
10 12 13 14 13 14 12 11 10 9 9 8 10 10 8 6 5 5 4 4 3 3 3 2 3 4 4 4 4 4 3 3 3 3 7 11 10 10 11 11 12 12 12
11 12 14 15 15 14 13 10 10 10 10 11 10 11 10 7 6 5 4 3 3 3 3 3 3 4 3 4 4 3 3 3 1 2 6 12 13 12 12 13 13 13 13
13 12 13 15 16 15 14 13 12 11 11 11 11 12 11 8 6 6 5 5 5 4 4 4 4 3 3 3 3 3 3 2 0 2 5 9 13 13 13 14 14 14 14
13 11 12 13 15 16 16 15 12 12 13 11 11 13 12 10 9 7 6 5 5 6 5 4 4 3 3 2 2 3 2 2 2 3 4 5 7 11 13 13 14 14 14
14 12 11 10 14 16 16 15 12 12 13 12 12 12 12 12 12 9 7 6 7 6 5 4 3 2 3 4 4 3 3 2 3 4 4 4 4 4 7 11 12 13 14
15 14 12 12 14 15 15 13 12 12 12 11 11 11 12 13 13 11 8 8 8 6 5 4 4 3 4 5 5 4 3 1 3 4 4 3 3 3 4 6 9 11 13
15 13 12 12 13 13 12 11 9 10 9 8 9 10 13 13 13 12 9 9 8 6 5 5 5 5 5 5 5 4 2 0 4 4 3 2 1 2 5 8 10 11 12
14 13 13 12 13 13 12 11 10 9 8 7 7 12 13 14 14 12 9 9 7 6 6 5 4 5 5 5 4 3 1 2 3 4 2 3 3 4 6 10 12 13 12
16 14 13 13 14 15 13 12 8 8 7 8 8 10 12 14 14 11 10 9 8 7 7 6 4 3 4 5 4 4 3 2 2 4 4 4 5 5 8 12 14 14 14
17 16 13 14 15 16 15 12 11 8 7 6 8 8 9 12 13 12 11 10 8 7 7 7 5 4 3 3 4 4 3 3 5 5 5 5 6 7 9 11 13 15 14
19 15 15 15 16 16 17 16 18 12 10 8 9 9 11 12 12 12 12 11 9 8 8 6 5 4 2 2 1 2 3 3 4 5 5 6 7 9 11 10 13 14 13
18 15 15 16 17 17 18 18 17 14 11 12 12 14 12 10 11 12 12 10 9 8 8 6 5 3 2 1 2 2 2 3 5 5 8 9 9 9 9 11 12 12 12
15 15 15 17 17 18 18 18 18 19 19 19 17 15 11 9 9 10 11 10 9 8 7 6 4 3 1 0 1 3 4 4 5 6 8 12 13 11 13 11 9 10 12
Wind_Direction
160 159 156 154 149 143 138 133 130 129 131 135 137 132 125 119 111 101 89 77 61 54 53 57 81 109 116 109 102 95 82 70 63 64 57 39 14 354 356 21 275 238 37
155 159 154 154 150 146 141 136 133 133 136 141 141 134 128 122 112 101 90 80 65 57 58 60 65 78 88 89 88 83 72 59 59 71 56 56 36 348 335 304 282 323 324
154 157 157 155 152 149 144 138 135 137 141 143 143 137 128 120 112 103 90 77 70 62 60 60 60 62 65 67 67 61 47 37 51 51 286 319 17 354 324 305 266 263 261
157 159 160 154 153 151 147 142 139 139 140 141 139 135 130 124 118 109 93 77 73 69 65 63 61 59 56 53 49 40 28 28 39 323 324 356 334 357 320 310 285 264 257
160 161 153 154 155 153 151 147 144 142 142 142 139 136 134 132 130 122 103 88 83 80 75 69 63 58 51 46 39 31 22 14 331 287 355 351 333 352 320 310 301 291 280
162 162 154 157 158 157 156 153 150 148 145 143 144 142 142 142 143 135 121 109 100 91 81 74 66 57 45 31 15 5 6 6 289 335 345 340 336 347 314 304 297 292 288
164 164 160 161 162 162 162 160 158 155 153 151 151 151 152 149 153 159 147 131 122 106 85 64 47 36 26 10 355 353 360 344 313 331 333 334 345 331 309 301 292 285 282
165 166 164 165 166 168 169 168 165 164 162 161 162 164 169 163 118 184 164 148 140 131 95 41 26 20 10 1 355 354 351 327 306 325 333 330 359 321 310 305 297 290 283
167 172 171 174 175 173 174 174 173 171 170 170 172 173 158 104 59 62 146 149 153 157 84 24 17 14 18 17 12 7 1 324 304 336 331 336 350 321 316 320 322 320 313
173 180 180 180 183 183 182 179 177 176 174 173 172 160 137 119 98 102 140 135 142 99 33 35 34 42 51 50 44 40 11 281 329 334 331 359 345 331 333 340 344 347 352
182 189 189 188 188 189 187 180 181 180 178 177 174 159 172 193 172 147 103 95 87 64 54 51 56 63 84 88 69 58 320 346 354 347 354 3 342 342 351 0 7 11 18
190 193 195 195 193 192 189 185 190 187 183 193 183 176 188 183 170 148 121 116 113 108 100 80 86 99 343 60 76 14 7 358 347 357 13 360 351 7 29 39 41 41 40
199 194 198 198 197 196 193 193 192 191 188 191 187 180 178 174 171 177 172 161 159 161 141 117 124 61 45 37 16 18 11 351 349 360 29 28 44 57 58 51 44 39 34
211 204 201 199 199 200 199 197 197 194 191 189 186 183 179 175 177 173 178 161 163 141 108 94 70 72 57 42 24 13 9 352 353 29 53 51 59 62 58 49 40 31 23
224 215 207 202 200 199 200 200 200 198 194 191 186 187 184 180 176 166 159 140 117 107 110 94 81 68 51 38 28 8 358 352 4 89 87 64 63 63 57 47 36 26 15
234 225 211 206 203 199 199 199 199 198 195 192 187 189 188 183 171 159 146 130 117 106 98 96 81 68 49 30 18 5 350 339 252 140 117 88 69 64 57 45 32 20 7
243 233 220 213 207 203 202 201 198 195 191 190 188 189 186 178 163 148 137 128 119 115 111 100 83 61 42 15 355 350 336 315 202 152 132 111 90 70 57 42 27 14 1
248 237 228 212 210 206 203 201 198 194 190 188 184 182 178 165 153 141 133 125 125 119 111 98 81 58 29 359 341 339 317 270 201 158 141 117 88 67 56 35 16 5 354
248 241 231 217 212 206 201 199 197 192 187 181 175 168 161 152 146 136 128 126 127 119 110 99 73 41 20 359 339 333 327 254 179 171 153 125 89 42 9 6 353 349 344
245 240 231 216 210 198 191 190 185 181 173 166 160 154 147 141 137 128 123 127 127 122 116 106 87 58 26 351 330 333 355 138 188 180 183 188 194 331 337 342 338 336 332
237 230 224 210 197 184 180 178 176 171 155 140 138 138 137 134 132 126 125 127 127 120 115 107 91 62 33 358 335 327 219 190 206 199 241 264 263 291 310 332 335 331 324
231 222 214 203 190 183 179 174 170 145 126 116 116 120 127 129 129 127 131 129 124 118 108 94 84 74 46 20 356 331 316 227 185 218 268 269 283 293 315 327 327 322 317
226 217 205 195 185 180 170 153 136 121 118 116 120 118 121 123 122 125 129 125 123 117 106 94 85 75 65 46 21 355 326 309 309 275 274 287 294 305 315 317 315 315 309
221 211 200 188 180 174 166 165 164 164 157 153 143 132 125 121 122 126 126 122 118 113 109 102 90 85 63 43 40 5 324 310 293 299 278 273 287 298 301 303 309 306 300
217 203 193 182 176 172 173 172 171 160 143 134 132 129 124 121 123 127 126 121 117 112 110 110 106 96 75 32 344 318 294 277 269 282 295 302 300 294 297 299 297 294 297
214 197 186 179 175 172 173 172 167 153 145 142 142 138 133 130 130 129 126 122 119 117 118 119 118 119 114 132 291 292 296 292 292 286 290 300 303 303 302 294 288 291 298
Height
1508 1509 1511 1513 1514 1516 1517 1518 1519 1520 1521 1522 1522 1523 1523 1523 1524 1523 1523 1522 1522 1522 1523 1522 1522 1523 1523 1524 1523 1523 1523 1522 1522 1521 1521 1520 1520 1520 1520 1520 1520 1522 1520
1508 1510 1511 1513 1515 1516 1517 1518 1519 1519 1520 1521 1521 1522 1523 1523 1523 1523 1523 1522 1522 1522 1523 1523 1523 1523 1523 1524 1523 1523 1523 1522 1521 1520 1520 1520 1519 1519 1519 1519 1520 1521 1520
1508 1510 1511 1513 1515 1516 1517 1518 1518 1519 1519 1520 1521 1522 1523 1523 1524 1524 1523 1523 1522 1522 1523 1523 1523 1523 1523 1524 1524 1523 1523 1522 1521 1520 1520 1520 1520 1519 1519 1519 1519 1519 1519
1508 1510 1512 1513 1515 1516 1517 1518 1518 1518 1518 1519 1521 1522 1523 1524 1524 1525 1524 1523 1523 1523 1523 1523 1523 1524 1524 1524 1524 1523 1522 1522 1521 1520 1521 1520 1520 1519 1519 1519 1519 1519 1519
1508 1511 1512 1514 1515 1517 1518 1518 1519 1519 1519 1519 1521 1522 1523 1524 1525 1525 1525 1524 1524 1523 1523 1523 1523 1524 1524 1524 1523 1523 1522 1522 1521 1521 1521 1520 1520 1519 1518 1518 1518 1518 1519
1509 1511 1512 1514 1515 1517 1518 1519 1519 1519 1519 1520 1521 1522 1524 1525 1526 1526 1526 1526 1525 1524 1524 1524 1524 1524 1524 1523 1523 1523 1523 1522 1522 1523 1522 1521 1521 1519 1519 1518 1518 1518 1518
1509 1511 1512 1514 1515 1517 1518 1519 1519 1519 1520 1520 1521 1522 1524 1525 1526 1527 1527 1527 1526 1525 1525 1525 1525 1525 1525 1524 1524 1524 1524 1524 1523 1524 1523 1522 1521 1520 1519 1519 1518 1518 1517
1509 1510 1512 1513 1515 1516 1518 1519 1519 1519 1520 1520 1521 1522 1524 1525 1526 1527 1527 1527 1527 1527 1526 1526 1526 1526 1526 1526 1525 1525 1525 1524 1524 1524 1524 1523 1521 1520 1520 1519 1518 1518 1517
1508 1510 1512 1513 1515 1516 1518 1519 1519 1520 1520 1521 1521 1522 1523 1525 1526 1527 1527 1528 1527 1527 1527 1527 1527 1527 1527 1526 1526 1526 1525 1525 1525 1525 1523 1522 1521 1520 1519 1518 1517 1517 1515
1507 1509 1511 1513 1515 1516 1517 1518 1519 1520 1520 1521 1521 1522 1523 1524 1526 1526 1527 1527 1528 1527 1527 1527 1527 1527 1527 1527 1526 1526 1525 1525 1525 1524 1523 1521 1520 1519 1518 1517 1516 1515 1514
1506 1508 1510 1512 1514 1516 1517 1518 1519 1519 1520 1521 1521 1522 1523 1525 1526 1526 1527 1527 1528 1528 1528 1527 1527 1527 1527 1526 1525 1525 1524 1524 1523 1522 1520 1519 1518 1517 1516 1515 1514 1513 1512
1505 1507 1508 1510 1512 1514 1515 1517 1518 1519 1519 1520 1522 1521 1523 1524 1525 1526 1526 1527 1527 1527 1527 1527 1527 1527 1526 1526 1524 1524 1523 1522 1521 1520 1518 1517 1516 1515 1514 1513 1512 1511 1509
1505 1505 1506 1508 1510 1511 1513 1515 1516 1517 1518 1519 1520 1521 1522 1523 1524 1525 1526 1527 1527 1527 1527 1527 1526 1526 1525 1524 1523 1522 1521 1520 1519 1518 1516 1515 1514 1512 1511 1510 1509 1508 1506
1503 1504 1505 1506 1507 1508 1510 1511 1513 1514 1516 1517 1518 1519 1520 1522 1523 1525 1526 1526 1527 1527 1526 1526 1525 1524 1523 1522 1521 1520 1519 1518 1517 1515 1513 1512 1511 1509 1508 1507 1506 1504 1503
1500 1501 1502 1503 1504 1505 1507 1508 1510 1511 1513 1515 1516 1517 1519 1521 1522 1523 1525 1525 1525 1525 1525 1524 1524 1523 1522 1521 1519 1518 1517 1515 1514 1512 1510 1509 1508 1506 1505 1504 1502 1501 1500
1496 1498 1499 1500 1501 1502 1503 1504 1506 1508 1510 1512 1513 1515 1517 1519 1520 1522 1523 1524 1524 1524 1523 1523 1522 1521 1520 1519 1517 1515 1513 1512 1510 1509 1507 1505 1504 1503 1502 1501 1499 1498 1497
1492 1493 1494 1495 1497 1498 1499 1500 1502 1504 1506 1508 1510 1513 1515 1517 1518 1520 1521 1522 1522 1522 1522 1522 1521 1520 1518 1516 1514 1512 1510 1508 1507 1505 1504 1502 1501 1500 1499 1498 1497 1495 1493
1486 1487 1489 1490 1492 1493 1494 1496 1497 1500 1502 1504 1507 1509 1512 1514 1516 1518 1519 1520 1520 1520 1520 1520 1519 1518 1516 1514 1512 1509 1507 1505 1503 1502 1500 1500 1499 1498 1496 1495 1493 1491 1489
1479 1481 1482 1484 1486 1487 1489 1491 1493 1495 1498 1500 1503 1505 1508 1511 1513 1515 1516 1517 1518 1518 1518 1518 1517 1516 1514 1512 1510 1507 1504 1502 1500 1498 1498 1497 1496 1495 1493 1491 1489 1487 1484
1472 1474 1476 1478 1480 1481 1483 1485 1487 1490 1492 1495 1498 1501 1504 1507 1510 1512 1514 1515 1516 1516 1516 1516 1515 1514 1512 1510 1507 1505 1501 1499 1498 1497 1496 1495 1493 1492 1490 1488 1485 1482 1479
1464 1466 1469 1471 1473 1474 1476 1478 1480 1483 1486 1489 1493 1496 1500 1503 1506 1509 1511 1512 1513 1514 1514 1514 1513 1512 1509 1507 1505 1503 1500 1498 1496 1495 1494 1493 1491 1488 1486 1484 1481 1478 1475
1456 1458 1461 1464 1466 1467 1469 1472 1474 1477 1480 1484 1488 1492 1496 1500 1503 1506 1508 1509 1511 1512 1512 1512 1511 1509 1507 1505 1503 1501 1501 1500 1495 1494 1492 1490 1488 1486 1483 1481 1477 1473 1469
1447 1450 1453 1456 1459 1461 1463 1465 1468 1471 1475 1480 1484 1488 1492 1496 1499 1502 1505 1507 1508 1509 1509 1509 1508 1506 1505 1503 1501 1501 1500 1498 1496 1491 1489 1487 1484 1481 1478 1475 1471 1468 1463
1438 1442 1446 1449 1451 1454 1456 1459 1462 1465 1470 1475 1480 1485 1489 1493 1496 1500 1502 1504 1506 1507 1507 1506 1505 1504 1502 1500 1499 1498 1497 1495 1493 1488 1484 1481 1477 1474 1470 1467 1464 1461 1457
1430 1433 1437 1441 1444 1447 1450 1454 1458 1462 1466 1471 1477 1481 1486 1490 1494 1497 1500 1502 1503 1504 1504 1503 1502 1501 1499 1498 1497 1494 1492 1490 1488 1486 1480 1476 1473 1469 1464 1460 1456 1453 1450
1421 1424 1429 1433 1437 1441 1445 1449 1453 1456 1461 1467 1473 1478 1483 1487 1491 1495 1498 1500 1500 1501 1500 1500 1499 1497 1496 1495 1493 1491 1489 1488 1486 1482 1477 1471 1466 1462 1458 1454 1450 1447 1443